{"data":{"norad_id":65387,"intl_designator":"2025-191J","name":"STARLINK-34703","alt_names":[],"object_type":"PAYLOAD","status":"ACTIVE","operator":null,"country":"US","launch_date":"2025-08-30","launch_site_code":"AFWTR","launch_vehicle":null,"mission":null,"orbit_class":"UNKNOWN","rcs_meters":null,"size_class":null,"mass_kg":null,"dimensions":null,"purposes":["comms"],"wikipedia_slug":null,"has_3d_model":false,"image_url":null,"decayed_at":null,"tle_current":{"epoch":"2026-05-25T03:16:03.006624Z","epoch_age_seconds":63340,"freshness":"FRESH","line1":"1 65387U 25191J   26145.13614591  .00003218  00000+0  22689-3 0  9998","line2":"2 65387  97.4494  16.5202 0002194  92.7013 267.4465 15.05661533 41770","mean_motion":15.05661533,"eccentricity":0.0002194,"inclination_deg":97.4494,"raan_deg":16.5202,"arg_perigee_deg":92.7013,"mean_anomaly_deg":267.4465,"bstar":0.00022689,"rev_number":4177,"period_min":95.639024338414,"perigee_km":547.95585968734,"apogee_km":550.9956961743,"semimajor_km":6927.6127779308,"source":"CELESTRAK","updated_at":"2026-05-25T13:38:20.773479Z"}}}